Погода в Ключи

Погода в Ключи : погода сейчас, прогноз погоды и архив. Всё, что Вы хотите узнать о погоде в Ключи!

Хотите узнать прогноз погоды в Ключи? Тогда Вам сюда: Погода в Ключи

Поиск расширенной информации на нашем сайте:

Другие новости

Новости СМИ2

Главная страница сайта

Новости сайта

02.10.2013

Напоминаем, что на нашем новом сайте вы можете получить высокодетализированные прогнозы погоды по пунктам России, СНГ и мира (включающие важные для авиации метеовеличины, такие как направление и скорость ветра, видимость, явления погоды, количество и форма облачности, нижняя и верхняя граница облачности), а также ознакомиться с разнообразными материалами по авиационной метеорологии и подборкой полезных ссылок на эту тему.

Сайт Метеоцентр.Азия посвящён разработке технологий оптимизации авиаметеорологического обслуживания, включая проектирование и перспективное создание нескольких автоматизированных авиаметеорологических систем:
- система выпуска высокодетальных прогностических карт явлений погоды для нижнего воздушного пространства по России и ближнему зарубежью;
- система верификации прогнозов TAF (выпускаемых синоптиками официальных АМСГ РФ и ближнего зарубежья) и AUTOTAF (выпускаемых сайтом Метеоцентр.Азия) - выявление ошибок, онлайн-сопоставление с фактической погодой METAR, автоматическое внесение коррективов в прогнозы при резком отклонении фактической погоды от прогноза, подсчёт оправдываемости прогнозов по элементам и в целом;
- система обработки, анализа и отображения авиаметеорологической информации для применения провайдерами метеорологической информации.


Погода в Ключи - сегодня

Время (UTC), дата Ветер
(°,м/с) 
Видим.   Явления Облачность Т
(°С)
Тd
(°С)
f(%) Тe
(°С)
Pmin
(гПа)
dP
(гПа)
Po
(мм)
O2
(г/м3)
Тmin Tmax R s Состояние
почвы
18 13.01.17 110 (В) 10 км    10/6 600 м средняя 
[Sc|Ac As]
-3 -6.6 76 -6  1025.3  0.4  766  313           
21 13.01.17 110 (В) 20000 м  позёмок  9/5 1000 м средняя 
[Sc|Ac trans]
-3.9 -9.3 66 -7  1026.3  767  314  -5      80  неравномерный
мокрый или
старый снег
100% 
00 14.01.17 070 (В) 20000 м  позёмок  9/4 1000 м средняя 
[Sc|Ac trans]
-4.1 -10.1 63 -7  1026.9  0.7  767  315           
03 14.01.17 090 (В) 20000 м  позёмок  10/4 1000 м средняя, верхняя 
[Sc|Ac lent|Ci fib]
-3.6 -9.9 62 -7  1025.4  -1.6  766  314           
06 14.01.17 120 (ЮВ) 20000 м    10/3 1000 м средняя 
[Sc|Ac As]
-4.5 -10 65 -7  1026.1  0.7  767  315           
09 14.01.17 100 (В) 20000 м    10/4 1000 м средняя 
[Sc|Ac As]
-5.5 -10.2 69 -7  1025.6  -0.5  766  316    -3.6       
12 14.01.17 110 (В) 10 км  {ливн. осадки}  10/8 720 м средняя 
[Sc diur, vesp|Ac As]
-6.1 -10.1 73 -8  1025.5  0.1  766  317           
15 14.01.17 130 (ЮВ) 10 км    10/6 600 м средняя 
[Sc|Ac As]
-6.9 -10.7 74 -7  1023.8  -1.7  765  317           
18 14.01.17 250 (З) 20000 м    9/3 1000 м средняя 
[Sc|Ac trans]
-11 -12.4 89 -11  1023.6  -0.3  765  322           
21 14.01.17 270 (З) 20000 м    9/3 1000 м средняя 
[Sc|Ac trans]
-13.2 -14.9 87 -18  1022.6  -1  764  325  -16.1    0.0  78  неравномерный
мокрый или
старый снег
100% 
00 15.01.17 290 (З) 20000 м    4/0 верхняя 
[Ci fib]
-13.8 -15.9 84 -17  1021.8  -0.8  763  325  -16.2         
03 15.01.17 300 (СЗ) 20000 м    3/0 верхняя 
[Ci fib]
-12 -15.9 73 -12  1020.2  -1.6  762  323           
06 15.01.17 030 (СВ) 20000 м    3/0 средняя 
[Ac trans]
-16.7 -19.3 80 -17  1019.9  -0.3  762  329           
09 15.01.17 тихо ()   20000 м    3/0 средняя 
[Ac trans]
-19.5 -22 81 -20  1019.8  -0.2  762  332    -11.4       
12 15.01.17 280 (З) 20000 м    3/0 средняя 
[Ac trans]
-19.6 -22.2 80 -22  1019.7  0.1  762  332           
15 15.01.17 280 (З) 20000 м    4/0 средняя 
[Ac trans]
-24.1 -27.1 76 -29  1019.1  -0.7  761  338           
18 15.01.17 тихо ()   20000 м  слаб. ливневой снег  9/3 1000 м кучево-дожд., средняя 
[Cb cap|Ac trans]
-23.5 -26.7 75 -24  1019.5  0.5  762  338           
21 15.01.17 тихо ()   0200 м  переохл. туман{ливн. осадки}  ?/?  
-21.1 -24 77 -21  1019.4  0.1  762  334  -24.4    0.4  78  неравномерный
сухой снег
100% 
00 16.01.17 тихо ()   0500 м  туман{ливн. осадки}  ясно 
-20.9 -23.9 77 -21  1019.5  0.1  762  334           
03 16.01.17 290 (З) 20000 м  в посл. час туман  3/0 средняя, верхняя 
[Ac lent|Ci fib]
-22.4 -25.5 76 -23  1018  -1.5  761  336           
06 16.01.17 тихо ()   10 км  туман на расстоянии  6/0 средняя 
[Ac lent]
-23.9 -27.2 74 -24  1017.3  -0.7  760  337           
09 16.01.17 тихо ()   10 км  туман на расстоянии  6/0 средняя 
[Ac trans]
-26.3 -29.7 73 -26  1017.2  0.1  760  341    -20.1       
12 16.01.17 310 (СЗ) 10 км  туман на расстоянии  8/0 средняя 
[Ac trans]
-26.4 -29.9 72 -27  1017.1  0.1  760  341           
15 16.01.17 140 (ЮВ) 20000 м  туман на расстоянии  6/0 средняя 
[Ac trans]
-28.6 -32.4 70 -29  1017.5  0.4  760  344           
18 16.01.17 тихо ()   10 км  туман на расстоянии  6/0 средняя 
[Ac trans]
-27.1 -30.7 71 -27  1016.9  -0.6  760  342           
Время (UTC), дата Ветер
(°,м/с) 
Видим.   Явления Облачность Т
(°С)
Тd
(°С)
f(%) Тe
(°С)
Pmin
(гПа)
dP
(гПа)
Po
(мм)
O2
(г/м3)
Тmin Tmax R s Состояние
почвы

Для получения пояснительной информации подведите курсор к названию столбца.

ПОГОДА в Ключи - архив

Всё, что Вы хотите узнать о погоде в Ключи - удобно и подробно!

Выберите нужную дату (начиная с 1 января 2015* года) и нажмите кнопку "Найти".
Будут отображены архивные сводки погоды по пункту Ключи, начиная с указанной даты.


Отображать данные в формате CSV (для использования в таблицах Excel)


Внимание! Наш архив погоды предназначен исключительно для личного некоммерческого использования в познавательных целях. Если Вам необходимы официальные справки о состоянии погоды (для производственных, юридических, коммерческих и т.п. целей), обращайтесь в органы Росгидромета.

*Примечание: данная дата относится к архиву по метеостанциям СССР (Россия, СНГ, Балтия).
Архив по метеостанциям Зарубежной Европы и Азии (кроме Китая) хранится 10 дней, по другим регионам земного шара (Китай, Африка, Америка, Австралия, Океания) - 1 день.

Ключи - район местоположения метеостанции


Название, широта, долгота, высота метеостанции:
Ключи 56.3°ш. 160.8°д. 29 м над ур. моря [Российская Федерация]

Дополнительная информация

В oтличие oт бoльшинства пoгoдных сайтoв мы публикуем пoдрoбную метеoинфoрмацию в детальнoм прoфессиoнальнoм фoрмате.

Характеристики температуры и влажнoсти вoздуха измеряются на высoте 2 м в тени вдали oт зданий и деревьев.
Скoрoсть ветра измеряется на высoте 10 м (на урoвне рoста челoвека скoрoсть ветра ниже в 1.5-2 раза). Если метеoстанция нахoдится в гoрoде или в лесу, тo скoрoсть ветра занижена на 2-4 м/с пo сравнению с oткрытым местoм. Скoрoсть ветра над акватoриями крупных рек и oзёр, а также на вершинах хoлмoв на 2-5 м/с выше, чем в oбычных услoвиях.
Атмoсфернoе давление в разных тoчках местнoсти мoжет значительнo oтличаться oт давления на метеoстанции, в зависимoсти oт услoвий рельефа (при пoдъёме на 10 м давление пoнижается примернo на 1 мм рт.ст.).